Hourly Data Report for October 03, 2017

All times are specified in Local Standard Time (LST). Add 1 hour to adjust for Daylight Saving Time where and when it is observed.

WINNIPEG THE FORKS
MANITOBA

49°53'18.008" N
97°07'46.007" W
230.00 m
5023262
71579
XWN

Download Data

Hourly Data (October 2017)
Hourly Data Report for October 3, 2017
Temp Definition
°C
Dew Point Temp Definition
°C
Rel Hum Definition
%
Wind Dir Definition
10's deg

Wind Spd Definition
km/h
Visibility Definition
km
Stn Press Definition
kPa
Hmdx Definition


Wind Chill Definition


Weather Definition


TIME
00:00 8.7 4.5 75 20 4   98.56     LegendNANA
01:00 7.9 4.6 79 20 4   98.52     LegendNANA
02:00 7.3 4.8 84 20 3   98.55     LegendNANA
03:00 7.4 4.7 83 20 4   98.56     LegendNANA
04:00 6.9 4.4 84 20 3   98.60     LegendNANA
05:00 7.1 4.3 83 21 3   98.64     LegendNANA
06:00 7.0 5.1 88 9 2   98.68     LegendNANA
07:00 7.3 5.2 87 0 1   98.71     LegendNANA
08:00 8.7 4.2 73 27 5   98.86     LegendNANA
09:00 8.3 2.3 66 32 4   98.91     LegendNANA
10:00 8.8 3.3 69 9 3   98.89     LegendNANA
11:00 9.0 4.4 73 19 3   98.96     LegendNANA
12:00 10.2 4.4 67 20 6   99.00     LegendNANA
13:00 10.5 5.1 69 22 8   99.04     LegendNANA
14:00 10.6 4.0 64 21 11   99.05     LegendNANA
15:00 12.6 5.0 60 21 8   99.04     LegendNANA
16:00 13.9 5.1 56 21 9   99.05     LegendNANA
17:00 13.7 3.6 51 22 5   99.08     LegendNANA
18:00 12.9 3.0 51 22 6   99.11     LegendNANA
19:00 12.3 1.7 48 26 4   99.18     LegendNANA
20:00 11.3 2.0 53 26 4   99.23     LegendNANA
21:00 10.9 2.2 55 25 3   99.24     LegendNANA
22:00 10.1 1.8 56 25 3   99.23     LegendNANA
23:00 9.8 1.9 58 27 3   99.22     LegendNANA

Notes on Data Quality.

Legend

  • E = Estimated
  • M = Missing
  • NA = Not Available
  • ‡ = Partner data that is not subject to review by the National Climate Archives
Date modified: